| time (UTC) | temp C | wind direction | speed KPH | gust KPH | rain 1hr cm | rain 24hr cm | rain mn cm | humidity % | barometer mb |
| 20260507043036 | 22 | 277 | 11.3 | 14.5 | 0.00 | 0.00 | 0.00 | 38 | 1012.0 |
| 20260507042037 | 22 | 261 | 12.9 | 19.3 | 0.00 | 0.00 | 0.00 | 36 | 1012.0 |
| 20260507041036 | 22 | 277 | 16.1 | 24.1 | 0.00 | 0.00 | 0.00 | 35 | 1011.8 |
| 20260507040036 | 22 | 283 | 16.1 | 22.5 | 0.00 | 0.00 | 0.00 | 35 | 1011.7 |
| 20260507035037 | 21 | 285 | 11.3 | 20.9 | 0.00 | 0.00 | 0.00 | 38 | 1011.6 |
| 20260507034038 | 22 | 266 | 6.4 | 9.7 | 0.00 | 0.00 | 0.00 | 39 | 1011.6 |
| 20260507033037 | 22 | 256 | 6.4 | 9.7 | 0.00 | 0.00 | 0.00 | 37 | 1011.5 |
| 20260507032057 | 23 | 237 | 4.8 | 9.7 | 0.00 | 0.00 | 0.00 | 36 | 1011.5 |
| 20260507031037 | 23 | 199 | 3.2 | 6.4 | 0.00 | 0.00 | 0.00 | 36 | 1011.5 |
| 20260507030037 | 23 | 220 | 3.2 | 8.0 | 0.00 | 0.00 | 0.00 | 36 | 1011.5 |
| 20260507025038 | 23 | 234 | 3.2 | 8.0 | 0.00 | 0.00 | 0.00 | 37 | 1011.4 |
| 20260507024038 | 23 | 301 | 4.8 | 9.7 | 0.00 | 0.00 | 0.00 | 36 | 1011.4 |
| 20260507023038 | 23 | 301 | 4.8 | 11.3 | 0.00 | 0.00 | 0.00 | 36 | 1011.3 |
| 20260507022038 | 24 | 306 | 9.7 | 16.1 | 0.00 | 0.00 | 0.00 | 35 | 1011.3 |
| 20260507021038 | 25 | 306 | 9.7 | 17.7 | 0.00 | 0.00 | 0.00 | 34 | 1011.2 |
| 20260507020038 | 25 | 304 | 16.1 | 24.1 | 0.00 | 0.00 | 0.00 | 34 | 1011.2 |
| 20260507015038 | 25 | 305 | 14.5 | 25.7 | 0.00 | 0.00 | 0.00 | 33 | 1011.2 |
| 20260507014039 | 25 | 303 | 16.1 | 29.0 | 0.00 | 0.00 | 0.00 | 33 | 1011.1 |
| 20260507013059 | 26 | 301 | 11.3 | 20.9 | 0.00 | 0.00 | 0.00 | 33 | 1011.2 |
| 20260507012038 | 26 | 293 | 19.3 | 32.2 | 0.00 | 0.00 | 0.00 | 32 | 1011.2 |
| 20260507011039 | 26 | 293 | 17.7 | 30.6 | 0.00 | 0.00 | 0.00 | 32 | 1011.1 |
| 20260507010038 | 27 | 292 | 25.7 | 33.8 | 0.00 | 0.00 | 0.00 | 31 | 1011.0 |
| 20260507005038 | 27 | 288 | 25.7 | 35.4 | 0.00 | 0.00 | 0.00 | 31 | 1010.8 |
| 20260507004059 | 27 | 294 | 20.9 | 40.2 | 0.00 | 0.00 | 0.00 | 32 | 1010.7 |
| 20260507003039 | 28 | 288 | 22.5 | 37.0 | 0.00 | 0.00 | 0.00 | 31 | 1010.5 |
| 20260507002039 | 28 | 280 | 24.1 | 37.0 | 0.00 | 0.00 | 0.00 | 31 | 1010.2 |
| 20260507001039 | 28 | 285 | 20.9 | 35.4 | 0.00 | 0.00 | 0.00 | 31 | 1010.0 |
| 20260507000039 | 29 | 292 | 19.3 | 30.6 | 0.00 | 0.00 | 0.00 | 31 | 1009.8 |
| 20260506235039 | 30 | 288 | 22.5 | 33.8 | 0.00 | 0.00 | 0.00 | 30 | 1009.6 |
| 20260506234040 | 31 | 275 | 8.0 | 14.5 | 0.00 | 0.00 | 0.00 | 31 | 1009.5 |
| 20260506233039 | 31 | 284 | 1.6 | 4.8 | 0.00 | 0.00 | 0.00 | 31 | 1009.5 |
| 20260506232040 | 31 | 300 | 6.4 | 16.1 | 0.00 | 0.00 | 0.00 | 31 | 1009.6 |
| 20260506231040 | 31 | 235 | 3.2 | 12.9 | 0.00 | 0.00 | 0.00 | 30 | 1009.7 |
| 20260506230040 | 31 | 322 | 1.6 | 8.0 | 0.00 | 0.00 | 0.00 | 31 | 1009.8 |
| 20260506225100 | 30 | 253 | 1.6 | 8.0 | 0.00 | 0.00 | 0.00 | 31 | 1009.9 |
| 20260506224040 | 30 | 76 | 1.6 | 9.7 | 0.00 | 0.00 | 0.00 | 32 | 1010.1 |
| 20260506223101 | 30 | 214 | 6.4 | 17.7 | 0.00 | 0.00 | 0.00 | 33 | 1010.2 |
| 20260506222040 | 30 | 226 | 4.8 | 12.9 | 0.00 | 0.00 | 0.00 | 35 | 1010.4 |
| 20260506221041 | 30 | 198 | 6.4 | 14.5 | 0.00 | 0.00 | 0.00 | 35 | 1010.4 |
| 20260506220041 | 30 | 172 | 3.2 | 17.7 | 0.00 | 0.00 | 0.00 | 34 | 1010.5 |
| 20260506215041 | 30 | 131 | 3.2 | 12.9 | 0.00 | 0.00 | 0.00 | 35 | 1010.7 |
| 20260506214041 | 29 | 158 | 11.3 | 22.5 | 0.00 | 0.00 | 0.00 | 34 | 1010.6 |
| 20260506213041 | 30 | 158 | 11.3 | 25.7 | 0.00 | 0.00 | 0.00 | 34 | 1010.7 |
| 20260506212101 | 29 | 175 | 12.9 | 19.3 | 0.00 | 0.00 | 0.00 | 34 | 1010.7 |
| 20260506211041 | 29 | 138 | 8.0 | 19.3 | 0.00 | 0.00 | 0.00 | 34 | 1010.7 |
| 20260506210041 | 29 | 178 | 8.0 | 19.3 | 0.00 | 0.00 | 0.00 | 34 | 1010.8 |
| 20260506205041 | 30 | 171 | 12.9 | 25.7 | 0.00 | 0.00 | 0.00 | 34 | 1010.8 |
| 20260506204042 | 29 | 177 | 14.5 | 27.4 | 0.00 | 0.00 | 0.00 | 34 | 1010.9 |
| 20260506203042 | 29 | 167 | 11.3 | 20.9 | 0.00 | 0.00 | 0.00 | 35 | 1010.9 |
| 20260506202042 | 29 | 166 | 14.5 | 27.4 | 0.00 | 0.00 | 0.00 | 34 | 1010.9 |
| 20260506201042 | 28 | 189 | 12.9 | 25.7 | 0.00 | 0.00 | 0.00 | 35 | 1011.0 |
| 20260506200042 | 28 | 129 | 9.7 | 19.3 | 0.00 | 0.00 | 0.00 | 36 | 1011.2 |
| 20260506195042 | 28 | 166 | 11.3 | 22.5 | 0.00 | 0.00 | 0.00 | 36 | 1011.3 |
| 20260506194043 | 28 | 174 | 12.9 | 22.5 | 0.00 | 0.00 | 0.00 | 37 | 1011.5 |
| 20260506193043 | 27 | 164 | 16.1 | 25.7 | 0.00 | 0.00 | 0.00 | 37 | 1011.6 |
| 20260506192042 | 27 | 166 | 12.9 | 20.9 | 0.00 | 0.00 | 0.00 | 38 | 1011.8 |
| 20260506191043 | 27 | 179 | 14.5 | 24.1 | 0.00 | 0.00 | 0.00 | 38 | 1011.8 |
| 20260506190043 | 26 | 165 | 12.9 | 22.5 | 0.00 | 0.00 | 0.00 | 40 | 1011.9 |
| 20260506185104 | 26 | 167 | 12.9 | 22.5 | 0.00 | 0.00 | 0.00 | 43 | 1011.9 |
| 20260506184043 | 26 | 171 | 12.9 | 24.1 | 0.00 | 0.00 | 0.00 | 43 | 1011.9 |
| 20260506183103 | 25 | 169 | 11.3 | 25.7 | 0.00 | 0.00 | 0.00 | 44 | 1012.1 |
| 20260506182103 | 25 | 165 | 4.8 | 14.5 | 0.00 | 0.00 | 0.00 | 45 | 1012.3 |
| 20260506181043 | 25 | 164 | 11.3 | 25.7 | 0.00 | 0.00 | 0.00 | 45 | 1012.3 |
| 20260506180044 | 25 | 171 | 14.5 | 24.1 | 0.00 | 0.00 | 0.00 | 45 | 1012.3 |
| 20260506175043 | 25 | 161 | 4.8 | 14.5 | 0.00 | 0.00 | 0.00 | 45 | 1012.4 |
| 20260506174043 | 25 | 180 | 4.8 | 16.1 | 0.00 | 0.00 | 0.00 | 45 | 1012.4 |
| 20260506173104 | 25 | 154 | 6.4 | 20.9 | 0.00 | 0.00 | 0.00 | 44 | 1012.4 |
| 20260506172044 | 25 | 188 | 6.4 | 22.5 | 0.00 | 0.00 | 0.00 | 45 | 1012.5 |
| 20260506171044 | 23 | 297 | 3.2 | 8.0 | 0.00 | 0.00 | 0.00 | 48 | 1012.6 |
| 20260506170104 | 23 | 34 | 6.4 | 12.9 | 0.00 | 0.00 | 0.00 | 47 | 1012.7 |
| 20260506165044 | 23 | 34 | 1.6 | 9.7 | 0.00 | 0.00 | 0.00 | 46 | 1012.8 |
| 20260506164044 | 23 | 47 | 6.4 | 14.5 | 0.00 | 0.00 | 0.00 | 47 | 1012.8 |
| 20260506163045 | 23 | 86 | 1.6 | 11.3 | 0.00 | 0.00 | 0.00 | 46 | 1012.9 |
| 20260506162044 | 23 | 52 | 1.6 | 9.7 | 0.00 | 0.00 | 0.00 | 45 | 1013.0 |
| 20260506161105 | 23 | 48 | 0.0 | 6.4 | 0.00 | 0.00 | 0.00 | 46 | 1013.1 |
| 20260506160045 | 23 | 81 | 1.6 | 6.4 | 0.00 | 0.00 | 0.00 | 48 | 1013.1 |
| 20260506155045 | 22 | 51 | 1.6 | 8.0 | 0.00 | 0.00 | 0.00 | 50 | 1013.0 |
| 20260506154045 | 22 | 31 | 0.0 | 3.2 | 0.00 | 0.00 | 0.00 | 51 | 1013.0 |
| 20260506153046 | 21 | 55 | 1.6 | 6.4 | 0.00 | 0.00 | 0.00 | 53 | 1012.9 |
| 20260506152046 | 20 | 0.0 | 0.0 | 0.00 | 0.00 | 0.00 | 55 | 1013.0 | |
| 20260506151106 | 20 | 32 | 0.0 | 1.6 | 0.00 | 0.00 | 0.00 | 58 | 1013.0 |
| 20260506150046 | 19 | 43 | 1.6 | 4.8 | 0.00 | 0.00 | 0.00 | 60 | 1013.0 |
| 20260506145046 | 18 | 0.0 | 0.0 | 0.00 | 0.00 | 0.00 | 62 | 1013.0 | |
| 20260506144046 | 18 | 46 | 0.0 | 4.8 | 0.00 | 0.00 | 0.00 | 64 | 1013.0 |
| 20260506143046 | 17 | 18 | 0.0 | 3.2 | 0.00 | 0.00 | 0.00 | 68 | 1013.0 |
| 20260506142046 | 16 | 350 | 0.0 | 1.6 | 0.00 | 0.00 | 0.00 | 71 | 1012.9 |
| 20260506141046 | 15 | 245 | 0.0 | 4.8 | 0.00 | 0.00 | 0.00 | 74 | 1012.8 |
| 20260506140106 | 14 | 0.0 | 0.0 | 0.00 | 0.00 | 0.00 | 78 | 1012.8 | |
| 20260506135047 | 13 | 0.0 | 0.0 | 0.00 | 0.00 | 0.00 | 79 | 1012.7 | |
| 20260506134047 | 12 | 107 | 0.0 | 3.2 | 0.00 | 0.00 | 0.00 | 81 | 1012.6 |
| 20260506133048 | 12 | 140 | 1.6 | 6.4 | 0.00 | 0.00 | 0.00 | 82 | 1012.6 |
| 20260506132047 | 11 | 119 | 0.0 | 1.6 | 0.00 | 0.00 | 0.00 | 83 | 1012.4 |
| 20260506131047 | 11 | 114 | 6.4 | 9.7 | 0.00 | 0.00 | 0.00 | 84 | 1012.3 |
| 20260506130047 | 10 | 74 | 8.0 | 12.9 | 0.00 | 0.00 | 0.00 | 84 | 1012.2 |
| 20260506125047 | 10 | 133 | 0.0 | 1.6 | 0.00 | 0.00 | 0.00 | 82 | 1012.1 |
| 20260506124047 | 10 | 342 | 0.0 | 1.6 | 0.00 | 0.00 | 0.00 | 82 | 1012.0 |
| 20260506123047 | 10 | 179 | 0.0 | 3.2 | 0.00 | 0.00 | 0.00 | 81 | 1012.0 |
| 20260506122107 | 10 | 146 | 0.0 | 0.0 | 0.00 | 0.00 | 0.00 | 81 | 1011.9 |
| 20260506121048 | 10 | 0.0 | 0.0 | 0.00 | 0.00 | 0.00 | 81 | 1011.8 | |
| 20260506120047 | 10 | 131 | 0.0 | 4.8 | 0.00 | 0.00 | 0.00 | 81 | 1011.8 |
| 20260506115048 | 10 | 125 | 1.6 | 6.4 | 0.00 | 0.00 | 0.00 | 81 | 1011.7 |
| 20260506114048 | 11 | 156 | 0.0 | 3.2 | 0.00 | 0.00 | 0.00 | 80 | 1011.7 |
| 20260506113048 | 10 | 147 | 1.6 | 9.7 | 0.00 | 0.00 | 0.00 | 80 | 1011.7 |
| 20260506112048 | 11 | 151 | 0.0 | 4.8 | 0.00 | 0.00 | 0.00 | 79 | 1011.6 |
| 20260506111049 | 11 | 0.0 | 0.0 | 0.00 | 0.00 | 0.00 | 78 | 1011.5 | |
| 20260506110049 | 11 | 163 | 0.0 | 3.2 | 0.00 | 0.00 | 0.00 | 78 | 1011.4 |
| 20260506105108 | 11 | 152 | 0.0 | 1.6 | 0.00 | 0.00 | 0.00 | 77 | 1011.3 |
| 20260506104049 | 11 | 114 | 1.6 | 6.4 | 0.00 | 0.00 | 0.00 | 75 | 1011.3 |
| 20260506103049 | 11 | 137 | 0.0 | 1.6 | 0.00 | 0.00 | 0.00 | 74 | 1011.2 |
| 20260506102049 | 11 | 226 | 1.6 | 4.8 | 0.00 | 0.00 | 0.00 | 75 | 1011.1 |
| 20260506101049 | 11 | 199 | 1.6 | 6.4 | 0.00 | 0.00 | 0.00 | 75 | 1011.2 |
| 20260506100049 | 12 | 167 | 0.0 | 1.6 | 0.00 | 0.00 | 0.00 | 74 | 1011.1 |
| 20260506095049 | 12 | 0.0 | 0.0 | 0.00 | 0.00 | 0.00 | 74 | 1011.2 | |
| 20260506094050 | 12 | 150 | 0.0 | 3.2 | 0.00 | 0.00 | 0.00 | 73 | 1011.1 |
| 20260506093109 | 13 | 85 | 0.0 | 3.2 | 0.00 | 0.00 | 0.00 | 71 | 1011.1 |
| 20260506092049 | 13 | 85 | 0.0 | 3.2 | 0.00 | 0.00 | 0.00 | 70 | 1011.0 |
| 20260506091050 | 13 | 246 | 1.6 | 4.8 | 0.00 | 0.00 | 0.00 | 69 | 1011.0 |
| 20260506090050 | 14 | 195 | 0.0 | 4.8 | 0.00 | 0.00 | 0.00 | 68 | 1010.9 |
| 20260506085051 | 15 | 133 | 0.0 | 4.8 | 0.00 | 0.00 | 0.00 | 66 | 1010.9 |
| 20260506084050 | 15 | 0.0 | 0.0 | 0.00 | 0.00 | 0.00 | 65 | 1010.9 | |
| 20260506083051 | 16 | 230 | 0.0 | 3.2 | 0.00 | 0.00 | 0.00 | 62 | 1010.9 |
| 20260506082050 | 16 | 225 | 0.0 | 1.6 | 0.00 | 0.00 | 0.00 | 61 | 1010.8 |
| 20260506081050 | 17 | 96 | 0.0 | 1.6 | 0.00 | 0.00 | 0.00 | 60 | 1010.7 |
| 20260506073051 | 19 | 0.0 | 0.0 | 0.00 | 0.00 | 0.00 | 53 | 1010.5 | |
| 20260506072051 | 20 | 297 | 0.0 | 6.4 | 0.00 | 0.00 | 0.00 | 51 | 1010.3 |
| 20260506071051 | 20 | 131 | 0.0 | 4.8 | 0.00 | 0.00 | 0.00 | 48 | 1010.2 |
| 20260506070111 | 21 | 106 | 0.0 | 3.2 | 0.00 | 0.00 | 0.00 | 46 | 1010.0 |
| 20260506062052 | 23 | 272 | 6.4 | 12.9 | 0.00 | 0.00 | 0.00 | 38 | 1009.8 |
| 20260506061052 | 23 | 180 | 9.7 | 17.7 | 0.00 | 0.00 | 0.00 | 38 | 1009.6 |
| 20260506051052 | 24 | 167 | 8.0 | 17.7 | 0.00 | 0.00 | 0.00 | 37 | 1009.4 |
| 20260506045114 | 25 | 194 | 3.2 | 9.7 | 0.00 | 0.00 | 0.00 | 35 | 1009.4 |
| 20260506044053 | 25 | 173 | 6.4 | 17.7 | 0.00 | 0.00 | 0.00 | 34 | 1009.3 |